Location: Gouy
(50.0008°N, 3.2556°E)
Time: 07:45:56
(UTC+00:00)

Cosmos 2151 Rocket - Pass Details

Date: 18 August 2024
Orbit: 615 x 637 km, 82.5° (Epoch: 07 September)

Event Time Altitude Azimuth Distance (km) Brightness Sun altitude
Rises 03:00:22 0° 129° (SE) 2,904 7.1 -14.6°
Reaches altitude 10° 03:04:51 10° 86° (E) 2,013 7.0 -14.1°
Maximum altitude 03:05:22 10° 79° (E) 2,003 7.1 -14.0°
Drops below altitude 10° 03:05:53 10° 72° (ENE) 2,017 7.3 -14.0°
Sets 03:10:25 0° 30° (NNE) 2,940 8.5 -13.4°
